Regional Weather Roundup
Issued by NWS

Home | Current Version | Previous Version | Text Only | Print | Product List | Glossary On
Versions: 1 2 3 4 5 6 7 8 9 10 11 12 13 14 15 16 17 18 19 20 21 22 23 24 25 26 27 28 29 30 31 32 33 34 35 36 37 38 39 40 41 42 43 44 45 46 47 48 49 50
000
ASUS44 KFWD 110015
RWRTX
NORTH TEXAS HOURLY WEATHER ROUNDUP
NATIONAL WEATHER SERVICE FORT WORTH TX
600 PM CST SAT DEC 10 2016

NOTE: "FAIR" INDICATES FEW OR NO CLOUDS BELOW 12,000 FEET WITH NO
SIGNIFICANT WEATHER AND/OR OBSTRUCTIONS TO VISIBILITY.

TXZ118-119-110100-
DALLAS/FORT WORTH METROPLEX

CITY           SKY/WX    TMP DP  RH WIND       PRES   REMARKS
DFW AIRPORT    CLOUDY    48  30  49 S14       30.21F
6HR MIN TEMP:  44; 6HR MAX TEMP:  49;

DALLAS LOVE    CLOUDY    48  28  46 S14       30.23F
6HR MIN TEMP:  45; 6HR MAX TEMP:  50;

FTW MEACHAM    CLOUDY    48  33  56 S13       30.21F
6HR MIN TEMP:  46; 6HR MAX TEMP:  49;

DAL-EXECUTIVE  CLOUDY    47  29  49 SE10      30.22F
6HR MIN TEMP:  43; 6HR MAX TEMP:  48;

FTW-ALLIANCE   CLOUDY    47  33  58 S9G20     30.20F
6HR MIN TEMP:  45; 6HR MAX TEMP:  49;

FTW-NAS-JRB    CLOUDY    49  34  56 S13       30.22F
6HR MIN TEMP:  45; 6HR MAX TEMP:  49;

FTW-SPINKS     CLOUDY    48  34  57 S8        30.24F
ARLINGTON      CLOUDY    48  32  53 SE13      30.23F
6HR MIN TEMP:  44; 6HR MAX TEMP:  49; 6HR PCP: TRACE;

ADDISON        CLOUDY    46  28  49 S12G18    30.23F
MESQUITE       CLOUDY    46  27  46 SE12      30.26F
LANCASTER      CLOUDY    47  28  46 SE8       30.25F
6HR MIN TEMP:  44; 6HR MAX TEMP:  48;

$$

TXZ091>094-102>105-117-120-121-131>134-110100-
NORTH CENTRAL TEXAS

CITY           SKY/WX    TMP DP  RH WIND       PRES   REMARKS
SHRMAN/DENISON CLOUDY    46  33  60 S16G22    30.20F WCI  39
6HR MIN TEMP:  44; 6HR MAX TEMP:  47;

GAINESVILLE    CLOUDY    46  33  62 S17       30.18F WCI  38
6HR MIN TEMP:  42; 6HR MAX TEMP:  46;

BOWIE          CLEAR     45  37  75 SE10G18   30.12F WCI  39
6HR MIN TEMP:  43; 6HR MAX TEMP:  51;

BRIDGEPORT     CLOUDY    47  38  69 S13G21    30.17F
6HR MIN TEMP:  45; 6HR MAX TEMP:  48;

DECATUR        CLOUDY    46  33  61 S16G22    30.15F WCI  39
6HR MIN TEMP:  43; 6HR MAX TEMP:  46;

DENTON         CLOUDY    48  35  60 S18       30.20F
6HR MIN TEMP:  44; 6HR MAX TEMP:  48;

MCKINNEY       CLOUDY    46  31  55 S8        30.23F
6HR MIN TEMP:  42; 6HR MAX TEMP:  47;

BONHAM         CLOUDY    45  28  53 S12       30.23F WCI  39
GREENVILLE     CLOUDY    46  30  53 SE9       30.24F
ROCKWALL       CLOUDY    46  27  48 SE8       30.24F
6HR MIN TEMP:  43; 6HR MAX TEMP:  47;

TERRELL        CLOUDY    47  26  44 S8        30.26F
6HR MIN TEMP:  45; 6HR MAX TEMP:  48;

WAXAHACHIE     CLOUDY    47  32  57 SE7       30.25F
6HR MIN TEMP:  43; 6HR MAX TEMP:  48;

CLEBURNE       CLOUDY    46  34  61 SE9       30.24S
GRANBURY       CLOUDY    49  36  60 SE12      30.21F
6HR MIN TEMP:  45; 6HR MAX TEMP:  50;

$$

TXZ083>090-098>101-113>116-127>130-139>142-154-155-110100-
WESTERN NORTH TEXAS

CITY           SKY/WX    TMP DP  RH WIND       PRES   REMARKS
WICHITA FALLS  CLEAR     49  36  61 S17       30.06F
6HR MIN TEMP:  46; 6HR MAX TEMP:  54;

WF-KICKAPOO    CLEAR     49  37  63 SE17      30.08S
6HR MIN TEMP:  45; 6HR MAX TEMP:  54;

VERNON         CLOUDY    52  34  51 S10       30.03F
6HR MIN TEMP:  28; 6HR MAX TEMP:  58;

ABILENE        CLOUDY    55  46  71 S18G28    30.09F
6HR MIN TEMP:  50; 6HR MAX TEMP:  59;

ABILENE-DYESS  CLEAR     54  44  70 S26G36    30.05F
6HR MIN TEMP:  50; 6HR MAX TEMP:  59;

CISCO          CLOUDY    50  39  66 S16G23    30.12F
BRECKENRIDGE   CLOUDY    54  37  53 S17G24    30.10F
6HR MIN TEMP:  51; 6HR MAX TEMP:  58;

GRAHAM         PTCLDY    49  40  69 SE14G22   30.09F
6HR MIN TEMP:  45; 6HR MAX TEMP:  56;

MINERAL WELLS  CLOUDY    48  37  65 S14       30.15F
6HR MIN TEMP:  46; 6HR MAX TEMP:  49;

STEPHENVILLE   CLOUDY    47  39  71 S12       30.21F
6HR MIN TEMP:  44; 6HR MAX TEMP:  49;

COMANCHE       CLOUDY    48  43  83 S8        30.19F
6HR MIN TEMP:  46; 6HR MAX TEMP:  51;

BROWNWOOD      CLOUDY    50  41  71 SE12      30.17F
COLEMAN        CLOUDY    55  46  71 S17G25    30.15F
6HR MIN TEMP:  49; 6HR MAX TEMP:  55;

$$

TXZ143>147-156>162-174-175-110100-
CENTRAL TEXAS

CITY           SKY/WX    TMP DP  RH WIND       PRES   REMARKS
WACO           CLOUDY    49  37  63 SE10      30.26F
6HR MIN TEMP:  46; 6HR MAX TEMP:  49;

WACO-MCGREGOR  CLOUDY    48  39  71 SE7       30.26S
6HR MIN TEMP:  45; 6HR MAX TEMP:  49;

HILLSBORO      CLOUDY    47  37  68 SE9       30.24F
6HR MIN TEMP:  45; 6HR MAX TEMP:  48;

CORSICANA      CLOUDY    48  31  51 SE7       30.28F
6HR MIN TEMP:  44; 6HR MAX TEMP:  49;

MEXIA          CLOUDY    47  32  55 SE7       30.26F
6HR MIN TEMP:  44; 6HR MAX TEMP:  48;

HEARNE         CLOUDY    51  38  60 SE6       30.28F
6HR MIN TEMP:  46; 6HR MAX TEMP:  52;

CAMERON        CLOUDY    50  40  67 SE3       30.26F
6HR MIN TEMP:  47; 6HR MAX TEMP:  52;

TEMPLE         CLOUDY    50  39  66 SE8       30.26S
6HR MIN TEMP:  47; 6HR MAX TEMP:  51;

KILLEEN        CLOUDY    47  41  79 S7        30.22F
6HR MIN TEMP:  46; 6HR MAX TEMP:  49;

KILLEEN-SKYLRK CLOUDY    49  42  77 S9        30.24F
6HR MIN TEMP:  47; 6HR MAX TEMP:  50;

FORT HOOD      CLOUDY    48  41  76 S8        30.21F
6HR MIN TEMP:  47; 6HR MAX TEMP:  50;

GATESVILLE     CLOUDY    48  39  71 S7        30.26S
HAMILTON       CLOUDY    47  40  76 S14       30.21F
6HR MIN TEMP:  45; 6HR MAX TEMP:  49;

LAMPASAS       CLOUDY    45  43  92 S5        30.22F
6HR MIN TEMP:  45; 6HR MAX TEMP:  50;

$$

TXZ095>097-106>112-122>126-135>138-148>153-164>167-110100-
EAST TEXAS

CITY           SKY/WX    TMP DP  RH WIND       PRES   REMARKS
PARIS          CLOUDY    45  25  45 SE14      30.26F WCI  38
6HR MIN TEMP:  43; 6HR MAX TEMP:  46;

SULPHUR SPRNGS CLOUDY    47  26  42 SE10G16   30.28F
6HR MIN TEMP:  43; 6HR MAX TEMP:  47;

MOUNT PLEASANT PTCLDY    46  28  48 SE8       30.30F
6HR MIN TEMP:  42; 6HR MAX TEMP:  47;

GILMER         CLOUDY    45  31  58 SE3       30.29F
6HR MIN TEMP:  41; 6HR MAX TEMP:  46;

MINEOLA        CLOUDY    46  27  46 SE5       30.27F
TYLER          CLOUDY    47  28  47 S8        30.28F
6HR MIN TEMP:  43; 6HR MAX TEMP:  48;

LONGVIEW       CLOUDY    48  34  58 SE5       30.30F
6HR MIN TEMP:  43; 6HR MAX TEMP:  49;

MARSHALL       CLOUDY    46  31  54 CALM      30.33F
6HR MIN TEMP:  42; 6HR MAX TEMP:  50;

ATHENS         CLOUDY    45  30  57 SE7       30.27F
PALESTINE      CLOUDY    47  32  54 SE8       30.30F
JACKSONVILLE   CLOUDY    46  34  63 SE3       30.31F
HENDERSON      CLOUDY    47  35  62 CALM      30.31F
6HR MIN TEMP:  44; 6HR MAX TEMP:  50;

CENTER         CLOUDY    51  29  42 E3        30.33F
6HR MIN TEMP:  50; 6HR MAX TEMP:  55;

NACOGDOCHES    CLOUDY    48  30  49 SE5       30.30F
6HR MIN TEMP:  45; 6HR MAX TEMP:  52;

LUFKIN         CLOUDY    48  32  53 E3        30.31F
6HR MIN TEMP:  46; 6HR MAX TEMP:  51;

$$

SUPPLEMENTAL OBSERVATIONS (CENTRAL)

CITY           SKY/WX    TMP DP  RH WIND       PRES   REMARKS
DENISON DAM      N/A     46  32  57 S8          N/A
CADDO GRASSLND   N/A     45  25  45 S9          N/A  WCI  40
PAT MAYSE LAKE   N/A     45  25  45 SE13        N/A  WCI  38
GREENVILLE       N/A     46  25  42 S7          N/A
CEDAR HILL       N/A     46  32  57 S8          N/A
ATHENS           N/A     46  28  49 SE10        N/A
LC1F1C2F2C3F3C4F4C5F5C6F6C7F7C8F8C9!



USA.gov is the U.S. government's official web portal to all federal, state and local government web resources and services.